Regional Weather Roundup
Issued by NWS Bismarck, ND

Home | Current Version | Previous Version | Text Only | Print | Product List | Glossary On
Versions: 1 2 3 4 5 6 7 8 9 10 11 12 13 14 15 16 17 18 19 20 21 22 23 24 25 26 27 28 29 30 31 32 33 34 35 36 37 38 39 40 41 42 43 44 45 46 47 48 49 50
000
ASUS43 KBIS 311101
RWRBIS

NWR BROADCAST TEXT
NATIONAL WEATHER SERVICE BISMARCK ND
500 AM CST SAT JAN 31 2015

NOTE: "FAIR" INDICATES FEW OR NO CLOUDS BELOW 12,000 FEET WITH NO
SIGNIFICANT WEATHER AND/OR OBSTRUCTIONS TO VISIBILITY.


CITY           SKY/WX    TMP DP  RH WIND       PRES   REMARKS
WILLISTON      CLOUDY    23  20  88 E16       30.19F WCI  10
MINOT          CLOUDY    16  12  84 N12       30.27R WCI   3
MINOT AFB      FLURRIES  13  12  97 NE15      30.29R WCI  -3
BISMARCK       CLOUDY    24  22  91 NE10      30.22F WCI  14
DICKINSON      FOG       22  19  89 E15       30.10F VSB 3/4 WCI   9
GARRISON         N/A     19  16  88 NE7       30.22F WCI  10
HETTINGER ARPT FOG       24  22  91 E14       30.09F VSB 1/4 WCI  12
JAMESTOWN      CLOUDY    19  13  77 NE12      30.24R WCI   7
CARRINGTON     CLOUDY    16  14  93 MISG      30.27R
CROSBY         CLOUDY    16  14  93 E15       30.27R WCI   1
HAZEN          CLOUDY    21  18  86 NE12      30.22F WCI   9
OAKES            N/A     21  21 100 N14       30.23R WCI   8
WATFORD CITY   CLOUDY    23  21  93 E14G20    30.15F WCI  11
$$

CITY           SKY/WX    TMP DP  RH WIND       PRES   REMARKS
GRAND FORKS    PTCLDY     9  -1  64 N23       30.34R WCI -11
GRAND FORKS AF CLOUDY     8   0  70 NE21G28   30.33R WCI -12
DEVILS LAKE    MOCLDY     9   1  72 N16       30.29R WCI  -9
FARGO          CLOUDY    17  11  77 N18       30.28R WCI   1
GWINNER        CLOUDY    23  23 100 N15       30.24R WCI  10
$$

CITY           SKY/WX    TMP DP  RH WIND       PRES   REMARKS
ABERDEEN       CLOUDY    25  22  88 N14       30.19R WCI  13
MOBRIDGE       CLOUDY    25  23  92 NE13      30.14S FOG     WCI  14
BUFFALO          N/A     22  20  92 NE9       29.96F WCI  12
RAPID CITY     MOCLDY    28  22  78 N8        30.01F WCI  20
GLASGOW        CLOUDY    24  21  88 E24G30    30.07F FOG     WCI   8
SIDNEY         CLOUDY    25  21  86 NE9       30.16F WCI  15
WOLF POINT     CLOUDY    24  20  84 E22       30.15S WCI   9
GLENDIVE       CLOUDY    27  25  93 NE17      30.08S WCI  14
MILES CITY     PTCLDY    23  20  88 NE8       29.99F WCI  14
BAKER          PTCLDY    25  22  88 E13       30.03F WCI  14
$$

CITY           SKY/WX    TMP DP  RH WIND       PRES   REMARKS
BILLINGS       PTCLDY    33  24  69 SW15      29.95F
GREAT FALLS    CLOUDY    28  24  85 NW13G21   30.03R WCI  17
$$



USA.gov is the U.S. government's official web portal to all federal, state and local government web resources and services.